Terminal Aerodrome Forecast
Issued by NWS Dodge City, KS

Home | Current Version | Previous Version | Graphics & Text | Print | Product List | Glossary Off
Versions: 1 2 3 4 5 6 7 8 9 10 11 12 13 14 15 16 17 18 19 20 21 22 23 24 25 26 27 28 29 30 31 32 33 34 35 36 37 38 39 40 41 42 43 44

000
FTUS43 KDDC 290354 AAD
TAFDDC
TAF AMD
KDDC 290354Z 2904/2924 07014KT P6SM FEW035 BKN110
     FM290500 16008KT P6SM BKN120
     FM291300 34011KT 5SM BR BKN005
     FM291500 36008KT P6SM SCT030=

USA.gov is the U.S. government's official web portal to all federal, state and local government web resources and services.